This is the latest recevied weather packets stored in our database for station/object W8UFO-13. If no packets are shown the sender has not sent any weather packets the latest 10 day(s).
| Time | Temp. | Humidity | Pressure | Rain* | Wind** | Luminosity | Snow |
|---|---|---|---|---|---|---|---|
| 1777844057 | 21.11° C | 42% | 1019 hPa | 0 mm | - | - | - |
| 1777843757 | 20.56° C | 41% | 1019.1 hPa | 0 mm | - | - | - |
| 1777843457 | 20.56° C | 42% | 1019.1 hPa | 0 mm | - | - | - |
| 1777843157 | 20.56° C | 43% | 1019.1 hPa | 0 mm | - | - | - |
| 1777842857 | 20.56° C | 41% | 1019.2 hPa | 0 mm | - | - | - |
| 1777842557 | 20° C | 42% | 1019.1 hPa | 0 mm | - | - | - |
| 1777842257 | 20° C | 39% | 1019.2 hPa | 0 mm | - | - | - |
| 1777841957 | 20.56° C | 44% | 1019.1 hPa | 0 mm | - | - | - |
| 1777841657 | 20° C | 42% | 1019.3 hPa | 0 mm | - | - | - |
| 1777841357 | 20° C | 46% | 1019.5 hPa | 0 mm | - | - | - |
| 1777841057 | 20° C | 41% | 1019.6 hPa | 0 mm | - | - | - |
| 1777840757 | 20.56° C | 43% | 1019.6 hPa | 0 mm | - | - | - |
| 1777840457 | 20.56° C | 44% | 1019.6 hPa | 0 mm | - | - | - |
| 1777840157 | 20° C | 45% | 1019.8 hPa | 0 mm | - | - | - |
| 1777839857 | 20° C | 43% | 1019.8 hPa | 0 mm | - | - | - |
| 1777839557 | 20° C | 41% | 1019.8 hPa | 0 mm | - | - | - |
| 1777839257 | 20° C | 44% | 1019.9 hPa | 0 mm | - | - | - |
| 1777838957 | 20° C | 42% | 1020.1 hPa | 0 mm | - | - | - |
| 1777838657 | 20° C | 44% | 1020.3 hPa | 0 mm | - | - | - |
| 1777838357 | 20° C | 42% | 1020.3 hPa | 0 mm | - | - | - |
| 1777838057 | 20° C | 46% | 1020.3 hPa | 0 mm | - | - | - |
| 1777837757 | 20° C | 41% | 1020.2 hPa | 0 mm | - | - | - |
| 1777837457 | 19.44° C | 43% | 1020.3 hPa | 0 mm | - | - | - |
| 1777837157 | 19.44° C | 44% | 1020.7 hPa | 0 mm | - | - | - |
| 1777836856 | 19.44° C | 45% | 1020.7 hPa | 0 mm | - | - | - |
* Rain latest hour (hover to see other rain measurements)
** Current wind speed in m/s (hover to see current wind gust speed)